{"data":{"norad_id":56032,"intl_designator":"2023-042AY","name":"STARLINK-5786","alt_names":[],"object_type":"PAYLOAD","status":"ACTIVE","operator":null,"country":"US","launch_date":"2023-03-24","launch_site_code":"AFETR","launch_vehicle":null,"mission":null,"orbit_class":"UNKNOWN","rcs_meters":null,"size_class":null,"mass_kg":null,"dimensions":null,"purposes":["comms"],"wikipedia_slug":null,"has_3d_model":false,"image_url":null,"decayed_at":null,"tle_current":{"epoch":"2026-09-20T14:32:01.135680Z","epoch_age_seconds":97007,"freshness":"FRESH","line1":"1 56032U 23042AY  26263.60556870  .00000475  00000+0  26811-4 0  9990","line2":"2 56032  43.0051  24.5838 0002070 279.5289  80.5329 15.27585100192847","mean_motion":15.275851,"eccentricity":0.000207,"inclination_deg":43.0051,"raan_deg":24.5838,"arg_perigee_deg":279.5289,"mean_anomaly_deg":80.5329,"bstar":2.6811e-5,"rev_number":19284,"period_min":94.266433994414,"perigee_km":481.61356248668,"apogee_km":484.45408720817,"semimajor_km":6861.1708248474,"source":"CELESTRAK","updated_at":"2026-09-21T09:00:33.359224Z"}}}